Previsão horária em Aavasaksa

Hoje, 14 Abril, Quarta-feira

Tempo Temperatura Precipitação Vento Pressão Humidade
00:00 -3°C° 0 mm 2 m/s 751 mmHg 96%
01:00 -3°C° 0 mm 1 m/s 751 mmHg 97%
02:00 -6°C° 0 mm 1 m/s 751 mmHg 97%
03:00 -6°C° 0 mm 1 m/s 751 mmHg 96%
04:00 -6°C° 0 mm 1 m/s 751 mmHg 95%
05:00 -7°C° 0 mm 1 m/s 751 mmHg 94%
06:00 -6°C° 0 mm 2 m/s 752 mmHg 86%
07:00 -4°C° 0 mm 2 m/s 752 mmHg 79%
08:00 -2°C° 0 mm 3 m/s 752 mmHg 71%
09:00 -1°C° 0 mm 3 m/s 752 mmHg 70%
10:00 0°C° 0 mm 3 m/s 753 mmHg 68%
11:00 0°C° 0 mm 4 m/s 753 mmHg 67%
12:00 +1°C° 0 mm 4 m/s 754 mmHg 64%
13:00 +3°C° 0 mm 4 m/s 755 mmHg 61%
14:00 +3°C° 0 mm 4 m/s 756 mmHg 59%
15:00 +3°C° 0 mm 4 m/s 756 mmHg 59%
16:00 +3°C° 0 mm 3 m/s 757 mmHg 59%
17:00 +3°C° 0 mm 3 m/s 757 mmHg 59%
18:00 +2°C° 0 mm 2 m/s 758 mmHg 68%
19:00 -1°C° 0 mm 2 m/s 758 mmHg 77%
20:00 -1°C° 0 mm 1 m/s 759 mmHg 86%
21:00 -1°C° 0 mm 1 m/s 760 mmHg 87%
22:00 -2°C° 0 mm 1 m/s 760 mmHg 89%
23:00 -2°C° 0 mm 1 m/s 760 mmHg 91%

Amanhã, 15 Abril, Quinta-feira

Tempo Temperatura Precipitação Vento Pressão Humidade
00:00 -3°C° 0 mm 1 m/s 761 mmHg 91%
01:00 -3°C° 0 mm 1 m/s 761 mmHg 90%
02:00 -3°C° 0 mm 1 m/s 761 mmHg 90%
03:00 -3°C° 0 mm 1 m/s 761 mmHg 88%
04:00 -4°C° 0 mm 2 m/s 761 mmHg 85%
05:00 -4°C° 0 mm 2 m/s 761 mmHg 83%
06:00 -3°C° 0 mm 2 m/s 761 mmHg 80%
07:00 -2°C° 0 mm 3 m/s 762 mmHg 76%
08:00 0°C° 0 mm 3 m/s 762 mmHg 73%
09:00 +1°C° 0 mm 3 m/s 762 mmHg 71%
10:00 +2°C° 0 mm 3 m/s 762 mmHg 69%
11:00 +3°C° 0 mm 3 m/s 763 mmHg 68%
12:00 +4°C° 0 mm 3 m/s 763 mmHg 66%
13:00 +5°C° 0 mm 3 m/s 763 mmHg 64%
14:00 +7°C° 0 mm 3 m/s 763 mmHg 62%
15:00 +7°C° 0 mm 2 m/s 763 mmHg 66%
16:00 +7°C° 0 mm 2 m/s 763 mmHg 69%
17:00 +7°C° 0 mm 2 m/s 764 mmHg 73%
18:00 +6°C° 0 mm 1 m/s 764 mmHg 80%
19:00 +3°C° 0 mm 1 m/s 764 mmHg 86%
20:00 +1°C° 0 mm 1 m/s 764 mmHg 93%
21:00 +1°C° 0 mm 1 m/s 765 mmHg 94%
22:00 0°C° 0 mm 0 m/s 765 mmHg 94%
23:00 -1°C° 0 mm 0 m/s 765 mmHg 94%

Depois de amanhã, 16 Abril, Sexta-feira

Tempo Temperatura Precipitação Vento Pressão Humidade
00:00 -1°C° 0 mm 0 m/s 766 mmHg 94%
01:00 -1°C° 0 mm 0 m/s 766 mmHg 94%
02:00 -2°C° 0 mm 0 m/s 766 mmHg 95%
03:00 -2°C° 0 mm 0 m/s 766 mmHg 95%
04:00 -2°C° 0 mm 0 m/s 767 mmHg 95%
05:00 -2°C° 0 mm 0 m/s 767 mmHg 95%
06:00 0°C° 0 mm 0 m/s 767 mmHg 89%
07:00 +2°C° 0 mm 0 m/s 768 mmHg 83%
08:00 +3°C° 0 mm 0 m/s 768 mmHg 77%
09:00 +5°C° 0 mm 0 m/s 768 mmHg 73%
10:00 +6°C° 0 mm 0 m/s 768 mmHg 69%
11:00 +7°C° 0 mm 0 m/s 769 mmHg 65%
12:00 +8°C° 0 mm 1 m/s 769 mmHg 64%
13:00 +9°C° 0 mm 1 m/s 769 mmHg 63%
14:00 +9°C° 0 mm 1 m/s 769 mmHg 62%
15:00 +9°C° 0 mm 1 m/s 769 mmHg 68%
16:00 +8°C° 0 mm 1 m/s 769 mmHg 74%
17:00 +7°C° 0 mm 0 m/s 769 mmHg 81%
18:00 +6°C° 0 mm 1 m/s 769 mmHg 85%
19:00 +4°C° 0 mm 1 m/s 769 mmHg 90%
20:00 +2°C° 0 mm 1 m/s 769 mmHg 94%
21:00 +1°C° 0 mm 1 m/s 769 mmHg 95%
22:00 +1°C° 0 mm 1 m/s 769 mmHg 95%
23:00 0°C° 0 mm 1 m/s 769 mmHg 96%

17 Abril, Sábado

Tempo Temperatura Precipitação Vento Pressão Humidade
00:00 0°C° 0 mm 1 m/s 769 mmHg 96%
01:00 0°C° 0 mm 1 m/s 769 mmHg 96%
02:00 -1°C° 0 mm 1 m/s 769 mmHg 96%
03:00 -1°C° 0 mm 1 m/s 769 mmHg 96%
04:00 -1°C° 0 mm 1 m/s 769 mmHg 95%
05:00 -1°C° 0 mm 1 m/s 769 mmHg 95%
06:00 +1°C° 0 mm 1 m/s 769 mmHg 88%
07:00 +3°C° 0 mm 1 m/s 769 mmHg 81%
08:00 +5°C° 0 mm 1 m/s 769 mmHg 74%
09:00 +5°C° 0 mm 2 m/s 769 mmHg 71%
10:00 +6°C° 0 mm 2 m/s 768 mmHg 68%
11:00 +7°C° 0 mm 2 m/s 768 mmHg 65%
12:00 +7°C° 0 mm 3 m/s 768 mmHg 64%
13:00 +8°C° 0 mm 3 m/s 768 mmHg 63%
14:00 +8°C° 0 mm 3 m/s 768 mmHg 62%
15:00 +8°C° 0 mm 2 m/s 768 mmHg 65%
16:00 +8°C° 0 mm 2 m/s 768 mmHg 68%
17:00 +8°C° 0 mm 2 m/s 767 mmHg 71%
18:00 +6°C° 0 mm 2 m/s 767 mmHg 77%
19:00 +5°C° 0 mm 2 m/s 767 mmHg 82%
20:00 +3°C° 0 mm 2 m/s 767 mmHg 88%
21:00 +3°C° 0 mm 2 m/s 767 mmHg 89%
22:00 +2°C° 0 mm 2 m/s 768 mmHg 89%
23:00 +3°C° 0 mm 1 m/s 768 mmHg 90%

18 Abril, Domingo

Tempo Temperatura Precipitação Vento Pressão Humidade
00:00 +2°C° 0 mm 1 m/s 768 mmHg 90%
01:00 +2°C° 0 mm 1 m/s 767 mmHg 91%
02:00 +2°C° 0 mm 1 m/s 767 mmHg 91%
03:00 +2°C° 0 mm 1 m/s 767 mmHg 91%
04:00 +2°C° 0 mm 1 m/s 767 mmHg 91%
05:00 +1°C° 0 mm 1 m/s 767 mmHg 91%
06:00 +2°C° 0 mm 2 m/s 767 mmHg 86%
07:00 +3°C° 0 mm 2 m/s 767 mmHg 81%
08:00 +4°C° 0 mm 2 m/s 767 mmHg 76%
09:00 +5°C° 0 mm 2 m/s 767 mmHg 72%
10:00 +7°C° 0 mm 2 m/s 767 mmHg 68%
11:00 +8°C° 0 mm 3 m/s 766 mmHg 65%
12:00 +8°C° 0 mm 3 m/s 766 mmHg 62%
13:00 +9°C° 0 mm 3 m/s 766 mmHg 60%
14:00 +9°C° 0 mm 3 m/s 766 mmHg 57%
15:00 +9°C° 0 mm 3 m/s 766 mmHg 60%
16:00 +8°C° 0 mm 3 m/s 766 mmHg 64%
17:00 +8°C° 0 mm 2 m/s 766 mmHg 67%
18:00 +7°C° 0 mm 2 m/s 765 mmHg 73%
19:00 +6°C° 0 mm 2 m/s 765 mmHg 79%
20:00 +5°C° 0 mm 2 m/s 765 mmHg 84%
21:00 +4°C° 0 mm 2 m/s 765 mmHg 84%
22:00 +3°C° 0 mm 2 m/s 765 mmHg 83%
23:00 +3°C° 0 mm 2 m/s 765 mmHg 83%

19 Abril, Segunda-feira

Tempo Temperatura Precipitação Vento Pressão Humidade
00:00 +2°C° 0 mm 2 m/s 765 mmHg 83%
01:00 +2°C° 0 mm 2 m/s 765 mmHg 83%
02:00 +2°C° 0 mm 2 m/s 765 mmHg 83%
03:00 +2°C° 0 mm 2 m/s 765 mmHg 84%
04:00 +2°C° 0 mm 2 m/s 765 mmHg 86%
05:00 +1°C° 0 mm 2 m/s 765 mmHg 87%
06:00 +3°C° 0 mm 2 m/s 765 mmHg 82%
07:00 +4°C° 0 mm 2 m/s 764 mmHg 76%
08:00 +5°C° 0 mm 2 m/s 764 mmHg 71%
09:00 +7°C° 0 mm 3 m/s 764 mmHg 66%
10:00 +8°C° 0 mm 3 m/s 764 mmHg 60%
11:00 +8°C° 0 mm 4 m/s 764 mmHg 55%
12:00 +10°C° 0 mm 4 m/s 764 mmHg 54%
13:00 +10°C° 0 mm 4 m/s 764 mmHg 54%
14:00 +11°C° 0 mm 4 m/s 764 mmHg 53%
15:00 +10°C° 0 mm 4 m/s 763 mmHg 55%
16:00 +10°C° 0 mm 4 m/s 763 mmHg 58%
17:00 +10°C° 0 mm 4 m/s 763 mmHg 60%
18:00 +9°C° 0 mm 3 m/s 763 mmHg 64%
19:00 +8°C° 0 mm 3 m/s 763 mmHg 68%
20:00 +5°C° 0 mm 3 m/s 762 mmHg 72%
21:00 +5°C° 0 mm 3 m/s 762 mmHg 74%
22:00 +5°C° 0 mm 2 m/s 762 mmHg 76%
23:00 +5°C° 0 mm 2 m/s 762 mmHg 78%
Mostrar mais

Necessitamos do seu Consentimento

A Meteoprog e os seus Fornecedores de Serviços podem armazenar e aceder a dados pessoais como cookies, identificadores do dispositivo ou outras tecnologias semelhantes existentes no seu dispositivo e processar estes dados para personalizar conteúdos e anúncios, assim como funcionalidades nas redes sociais e análise de tráfego.

  • Armazenar e/ou aceder a informações no seu dispositivo

    Os cookies, identificadores do dispositivo ou outras informações podem ser armazenados ou acedidos no seu dispositivo, para os fins acima indicados.

  • Anúncios e conteúdos personalizados, medição de anúncios e conteúdos, dados sobre o público-alvo e desenvolvimento de produtos

    Os anúncios e os conteúdos podem ser personalizados com base num perfil. Podem ser adicionados dados adicionais para uma maior personalização dos anúncios e dos conteúdos. A eficácia dos anúncios e dos conteúdos pode ser medida. Podem ser obtidas informações sobre o público que visualizou os anúncios e os conteúdos. Estes dados podem ser usados para desenvolver ou melhorar sistemas, softwares ou a experiência do utilizador.

Ao clicar em "Eu concordo”, permitirá o uso de cookies, identificadores do dispositivo e web beacons mencionados ou outras tecnologias semelhantes. As configurações do navegador do seu dispositivo podem ser alteradas.

Para certos fins, podem ser invocados interesses legítimos ao invés de consentimento. Pode ler mais informação sobre este assunto na nossa Política de Privacidade e Cookies.